Location: Kikino
(54.4440°N, 112.0940°W)
Time: 18:12:31
(UTC+00:00)

A-11 Canister half - Pass Details

Date: 26 May 2024
Orbit: 1525 x 1683 km, 47.3° (Epoch: 12 June)

Event Time Altitude Azimuth Distance (km) Brightness Sun altitude
Rises 05:35:33 0° 248° (WSW) 4,692 11.6 -10.7°
Reaches altitude 10° 05:38:38 10° 244° (WSW) 3,723 11.0 -10.9°
Maximum altitude 05:47:42 55° 170° (S) 1,844 9.1 -11.5°
Drops below altitude 10° 05:57:04 10° 96° (E) 3,841 10.8 -12.0°
Sets 06:00:18 0° 93° (E) 4,850 11.4 -12.2°
